User: anonymous   Login
Location: Albany
(35.0000°S, 118.0000°E)
Time: 03:26:15
(UTC-04:00)
Language:

Cosmos 2227 Rocket - Orbit

View from above orbital plane
View from above orbital plane
View from above satellite
View from above satellite

Ground track
Ground track

The orbit data is extracted from the following two-line orbital elements,

1 22285U 92093B   15215.21200763 -.00000053  00000-0 -28907-5 0  9998
2 22285 071.0202 207.0621 0001881 086.1885 273.9452 14.14977593165784
Epoch (UTC): 03 August 2015 05:05:17
Eccentricity: 0.0001881
inclination: 71.0202°
perigee height: 841 km
apogee height: 844 km
right ascension of ascending node: 207.0621°
argument of perigee: 86.1885°
revolutions per day: 14.14977593
mean anomaly at epoch: 273.9452°
orbit number at epoch: 16578

The dashed part of the orbit path shows where the satellite is in the earth's shadow,  

DLR